Martinsburg, WV

11:40 AM EDT on April 20, 2018 (GMT -0400)
Eastern W Va Regional-Shepherd

Weather History for KMRB - April, 2014

Change the Weather History Date:

Monday, April 7, 2014

  Actual Average Record
Temperature  
Mean Temperature 43 °F 50 °F  
Max Temperature 46 °F 61 °F 90 °F (1929)
Min Temperature 39 °F 38 °F 20 °F (2002)
Degree Days  
Heating Degree Days 22 15  
Month to date heating degree days 103 114  
Since 1 July heating degree days 5031 4784  
Cooling Degree Days 0 0  
Month to date cooling degree days 0 0  
Year to date cooling degree days 0 1  
Moisture  
Dew Point 35 °F    
Average Humidity 65    
Maximum Humidity 93    
Minimum Humidity 37    
Precipitation  
Precipitation 0.37 in 0.11 in 1.34 in (1988)
Month to date precipitation 0.52 0.78  
Year to date precipitation 6.39 9.08  
Sea Level Pressure  
Sea Level Pressure 29.92 in    
Wind  
Wind Speed 4 mph (NE)    
Max Wind Speed 12 mph    
Max Gust Speed 16 mph    
Visibility 4 miles    
Events Rain    
T = Trace of Precipitation, MM = Missing Value Source: NWS Daily Summary

Daily Weather History Graph

Daily Weather History Graph

Search for Another Location

Airport or City:

Astronomy

Apr. 07, 2014 Rise Set
Actual Time 6:46 AM EDT 7:41 PM EDT
Civil Twilight 6:19 AM EDT 8:09 PM EDT
Nautical Twilight 5:47 AM EDT 8:41 PM EDT
Astronomical Twilight 5:13 AM EDT 9:15 PM EDT
Moon 12:41 PM EDT (4/7) 2:16 AM EDT (4/7)
Length of Visible Light 13h 49m
Length of Day
12h 54m
First Quarter, 53% of the Moon is Illuminated
Apr 7
First Quarter
Apr 15
Full
Apr 22
Last Quarter
Apr 29
New
May 6
First Quarter

Hourly Weather History & Observations

Time (EDT) Temp. Windchill Dew Point Humidity Pressure Visibility Wind Dir Wind Speed Gust Speed Precip Events Conditions
12:53 AM 46.0 °F 43.9 °F 21.9 °F 39% 30.14 in 10.0 mi South 4.6 mph - N/A   Clear
1:53 AM 45.0 °F 43.5 °F 23.0 °F 42% 30.12 in 10.0 mi SE 3.5 mph - N/A   Clear
2:53 AM 45.0 °F 43.5 °F 21.9 °F 40% 30.11 in 10.0 mi ESE 3.5 mph - N/A   Clear
3:53 AM 43.0 °F 40.3 °F 25.0 °F 49% 30.10 in 10.0 mi East 4.6 mph - N/A   Scattered Clouds
4:53 AM 44.1 °F 41.5 °F 27.0 °F 51% 30.07 in 10.0 mi East 4.6 mph - N/A   Overcast
5:53 AM 46.0 °F 44.8 °F 24.1 °F 42% 30.08 in 10.0 mi ESE 3.5 mph - N/A   Overcast
6:53 AM 46.0 °F 43.1 °F 23.0 °F 40% 30.09 in 10.0 mi SE 5.8 mph - N/A   Overcast
7:53 AM 42.1 °F - 32.0 °F 67% 30.11 in 8.0 mi Calm Calm - 0.01 in Rain Light Rain
8:53 AM 41.0 °F 39.0 °F 35.1 °F 79% 30.11 in 5.0 mi ENE 3.5 mph - 0.04 in Rain Light Rain
9:50 AM 39.2 °F 35.9 °F 35.6 °F 87% 30.08 in 4.0 mi East 4.6 mph - 0.06 in Rain Light Rain
9:53 AM 39.9 °F 37.8 °F 35.1 °F 83% 30.09 in 4.0 mi East 3.5 mph - 0.06 in Rain Light Rain
10:53 AM 39.9 °F 36.7 °F 35.1 °F 83% 30.08 in 4.0 mi East 4.6 mph - 0.07 in Rain Light Rain
11:17 AM 39.9 °F 35.8 °F 36.0 °F 86% 30.04 in 4.0 mi NE 5.8 mph - 0.02 in Rain Light Rain
11:33 AM 39.9 °F 33.4 °F 36.0 °F 86% 30.02 in 5.0 mi East 10.4 mph - 0.03 in Rain Light Rain
11:53 AM 39.9 °F 35.1 °F 36.0 °F 86% 30.01 in 7.0 mi East 6.9 mph - 0.04 in Rain Light Rain
12:22 PM 39.0 °F 36.8 °F 36.0 °F 89% 29.97 in 6.0 mi NNE 3.5 mph - 0.00 in Rain Light Rain
12:53 PM 39.9 °F 35.8 °F 36.0 °F 86% 29.95 in 7.0 mi NNE 5.8 mph - 0.00 in   Overcast
1:53 PM 39.9 °F 35.1 °F 37.0 °F 89% 29.94 in 2.5 mi North 6.9 mph - 0.02 in Rain Light Rain
2:16 PM 39.9 °F 35.1 °F 37.0 °F 89% 29.91 in 1.2 mi NNE 6.9 mph - 0.04 in Rain Rain
2:37 PM 41.0 °F 36.4 °F 37.0 °F 86% 29.93 in 2.0 mi North 6.9 mph - 0.05 in Rain Light Rain
2:48 PM 41.0 °F 35.2 °F 37.4 °F 87% 29.88 in 1.2 mi North 9.2 mph - 0.06 in Rain Light Rain
2:53 PM 41.0 °F 35.8 °F 37.9 °F 89% 29.89 in 1.2 mi North 8.1 mph - 0.06 in Rain Light Rain
3:02 PM 41.0 °F 36.4 °F 37.9 °F 89% 29.88 in 1.5 mi North 6.9 mph - 0.01 in Rain Light Rain
3:50 PM 42.8 °F 39.3 °F 39.2 °F 87% 29.87 in 1.0 mi North 5.8 mph - 0.05 in Rain Light Rain
3:53 PM 42.1 °F 38.4 °F 39.0 °F 89% 29.88 in 1.2 mi North 5.8 mph - 0.05 in Rain Light Rain
4:24 PM 42.1 °F 36.6 °F 39.0 °F 89% 29.81 in 2.0 mi NNE 9.2 mph - 0.01 in Rain Light Rain
4:45 PM 42.1 °F 37.7 °F 39.0 °F 89% 29.79 in 4.0 mi NNE 6.9 mph - 0.01 in   Overcast
4:53 PM 42.1 °F 39.2 °F 39.0 °F 89% 29.80 in 5.0 mi NE 4.6 mph - 0.02 in   Overcast
5:24 PM 42.1 °F 37.7 °F 39.0 °F 89% 29.76 in 2.5 mi NNE 6.9 mph - N/A   Overcast
5:53 PM 42.1 °F 38.4 °F 39.0 °F 89% 29.77 in 2.0 mi North 5.8 mph - N/A   Overcast
6:09 PM 42.1 °F 37.7 °F 39.0 °F 89% 29.75 in 1.5 mi NNE 6.9 mph - N/A   Overcast
6:53 PM 42.1 °F 37.7 °F 39.0 °F 89% 29.73 in 1.2 mi North 6.9 mph - N/A   Overcast
7:53 PM 41.0 °F 38.0 °F 39.0 °F 93% 29.70 in 1.5 mi NNW 4.6 mph - N/A   Overcast
8:53 PM 41.0 °F - 39.0 °F 93% 29.69 in 1.5 mi Calm Calm - N/A   Overcast
9:53 PM 41.0 °F - 39.0 °F 93% 29.67 in 1.2 mi Calm Calm - N/A   Overcast
10:53 PM 41.0 °F 39.0 °F 39.0 °F 93% 29.63 in 1.0 mi WNW 3.5 mph - N/A   Overcast
11:53 PM 42.1 °F - 39.0 °F 89% 29.60 in 1.0 mi Calm Calm - N/A   Overcast